Location: Marshall
(39.8477°N, 87.1868°W)
Time: 03:46:55
(UTC+00:00)

BlueWalker 3 - Pass Details

Date: 12 May 2026
Orbit: 447 x 456 km, 53.2° (Epoch: 9 June)

Event Time Altitude Azimuth Distance (km) Brightness Sun altitude
Exits shadow 07:44:08 23° 342° (NNW) 993 3.8 -25.7°
Drops below altitude 10° 07:46:42 10° 28° (NNE) 1,575 5.5 -25.4°
Sets 07:49:07 0° 43° (NE) 2,450 6.8 -25.2°
